Location: Sternwarte ZA, Rosenfeld-Brittheim
(48.2889°N, 8.6789°E)
Time: 19:57:10

ISS - Pass Details

Date: 20 March 2018
Orbit: 403 x 406 km, 51.6° (Epoch: 23 March)

Event Time Altitude Azimuth Distance (km) Brightness Sun altitude
Exits shadow 04:59:10 14° 188° (S) 1,236 -1.6 -15.5°
Drops below altitude 10° 05:00:01 10° 176° (S) 1,457 -1.2 -15.4°
Sets 05:02:30 0° 156° (SSE) 2,311 0.1 -15.0°
